Terminal Aerodrome Forecast
Issued by NWS

Home | Current Version | Previous Version | Text Only | Print | Product List | Glossary On
Versions: 1 2 3 4 5 6 7 8 9 10 11 12 13 14 15 16 17 18 19 20 21 22 23 24 25 26 27 28 29 30 31 32 33 34 35 36 37 38 39 40 41 42
000
FTAK31 PANC 132334
TAFADU
TAF
PADU 132334Z 1400/1424 05010KT P6SM -RA OVC015
      TEMPO 1400/1403 5SM -RA BR BKN008
     FM140300 04010KT 5SM -RA BR BKN007 OVC010
     FM140800 10004KT P6SM -RA SCT007 BKN012 OVC040=

USA.gov is the U.S. government's official web portal to all federal, state and local government web resources and services.